Location: Tafessasset
(32.5899°N, 5.4824°W)
Time: 09:03:33
(UTC+00:00)

PSLV R/B - Pass Details

Date: 18 February 2020
Orbit: 505 x 578 km, 97.8° (Epoch: 08 April)

Event Time Altitude Azimuth Distance (km) Brightness Sun altitude
Rises 05:20:45 0° 14° (NNE) 2,627 7.5 -22.1°
Reaches altitude 10° 05:22:51 10° 16° (NNE) 1,745 6.5 -21.6°
Maximum altitude 05:26:35 72° 101° (ESE) 551 3.9 -20.9°
Drops below altitude 10° 05:30:23 10° 187° (S) 1,769 6.3 -20.1°
Sets 05:32:31 0° 189° (S) 2,667 7.3 -19.6°
